Terminal Aerodrome Forecast
Issued by NWS

Home | Current Version | Previous Version | Graphics & Text | Print | Product List | Glossary On
Versions: 1 2 3 4 5 6 7 8 9 10 11 12 13 14 15 16 17 18 19 20 21 22 23 24 25 26 27 28 29 30 31 32 33 34 35 36 37 38 39 40 41 42 43 44 45 46 47 48 49 50
000
FTUS43 KLOT 251252 AAA
TAFGYY
TAF AMD
KGYY 251252Z 2513/2612 20017G27KT P6SM BKN025 OVC040
     FM251430 22019G29KT 6SM -RA BKN018 OVC035
      TEMPO 2515/2516 3SM -RA BKN012
     FM251600 23020G30KT P6SM BKN018
     FM252000 24018G28KT P6SM SCT040 BKN250
     FM260200 20014G20KT P6SM BKN250
     FM260900 19012KT P6SM SCT040 BKN150 PROB30 2609/2612 SHRA=

USA.gov is the U.S. government's official web portal to all federal, state and local government web resources and services.